User: anonymous   Login
Location: Cow Canyon Saddle
(34.2291°N, 117.6698°W)
Time: 20:38:53
(UTC-07:00)
Language:

Lacrosse 5 - Orbit

View from above orbital plane
View from above orbital plane
View from above satellite
View from above satellite

Ground track
Ground track

The orbit data is extracted from the following two-line orbital elements,

1 28646U 05016A   16261.66953993 0.00000000  00000-0  00000-0 0    07
2 28646  57.0130  63.0658 0004000  46.4317 313.5683 14.51933032    01
Epoch (UTC): 17 September 2016 16:04:08
Eccentricity: 0.0004000
inclination: 57.0130°
perigee height: 716 km
apogee height: 722 km
right ascension of ascending node: 63.0658°
argument of perigee: 46.4317°
revolutions per day: 14.51933032
mean anomaly at epoch: 313.5683°
orbit number at epoch: 0

The dashed part of the orbit path shows where the satellite is in the earth's shadow,  

DLR